TimeICT,TemperatureF,Dew PointF,Humidity,Sea Level PressureIn,VisibilityMPH,Wind Direction,Wind SpeedMPH,Gust SpeedMPH,PrecipitationIn,Events,Conditions,WindDirDegrees,DateUTC
12:00 AM,78.8,73.4,83,29.89,5.6,North,8.1,-,N/A,,Clear,360,2013-10-25 17:00:00
12:30 AM,77.0,73.4,89,29.89,5.6,North,3.5,-,N/A,,Clear,10,2013-10-25 17:30:00
1:00 AM,77.0,71.6,83,29.89,5.6,North,3.5,-,N/A,,Clear,360,2013-10-25 18:00:00
7:00 AM,75.2,69.8,83,29.92,4.3,NE,4.6,-,N/A,,Scattered Clouds,50,2013-10-26 00:00:00
7:30 AM,77.0,69.8,78,29.95,4.3,ENE,6.9,-,N/A,,Scattered Clouds,60,2013-10-26 00:30:00
8:00 AM,77.0,68.0,74,29.95,4.3,ENE,5.8,-,N/A,,Scattered Clouds,60,2013-10-26 01:00:00
8:30 AM,78.8,68.0,69,29.95,4.3,ENE,5.8,-,N/A,,Scattered Clouds,60,2013-10-26 01:30:00
9:00 AM,80.6,69.8,70,29.98,4.3,East,5.8,-,N/A,,Scattered Clouds,80,2013-10-26 02:00:00
9:30 AM,82.4,69.8,66,29.98,4.3,ESE,4.6,-,N/A,,Scattered Clouds,120,2013-10-26 02:30:00
10:00 AM,82.4,69.8,66,29.98,4.3,East,5.8,-,N/A,,Scattered Clouds,100,2013-10-26 03:00:00
10:30 AM,82.4,69.8,66,29.98,5.6,East,4.6,-,N/A,,Scattered Clouds,90,2013-10-26 03:30:00
11:00 AM,82.4,71.6,70,29.95,5.6,Variable,2.3,-,N/A,,Scattered Clouds,0,2013-10-26 04:00:00
11:30 AM,84.2,69.8,62,29.95,5.6,Variable,3.5,-,N/A,,Scattered Clouds,0,2013-10-26 04:30:00
12:00 PM,82.4,69.8,66,29.92,5.6,Variable,3.5,-,N/A,,Scattered Clouds,0,2013-10-26 05:00:00
12:30 PM,82.4,71.6,70,29.92,5.6,SSW,5.8,-,N/A,,Scattered Clouds,210,2013-10-26 05:30:00
1:00 PM,80.6,71.6,74,29.89,5.6,WSW,4.6,-,N/A,,Mostly Cloudy,250,2013-10-26 06:00:00
1:30 PM,82.4,71.6,70,29.86,5.6,Variable,3.5,-,N/A,,Mostly Cloudy,0,2013-10-26 06:30:00
2:00 PM,82.4,71.6,70,29.86,5.6,Variable,3.5,-,N/A,,Mostly Cloudy,0,2013-10-26 07:00:00
2:30 PM,82.4,71.6,70,29.86,5.6,Variable,3.5,-,N/A,,Mostly Cloudy,0,2013-10-26 07:30:00
3:00 PM,84.2,71.6,66,29.83,5.6,West,4.6,-,N/A,,Mostly Cloudy,260,2013-10-26 08:00:00
3:30 PM,82.4,71.6,70,29.83,5.6,West,5.8,-,N/A,,Mostly Cloudy,260,2013-10-26 08:30:00
4:00 PM,82.4,71.6,70,29.83,5.6,WNW,5.8,-,N/A,,Mostly Cloudy,290,2013-10-26 09:00:00
4:30 PM,82.4,71.6,70,29.83,5.6,WNW,4.6,-,N/A,,Mostly Cloudy,290,2013-10-26 09:30:00
5:00 PM,82.4,71.6,70,29.83,5.6,NW,4.6,-,N/A,,Mostly Cloudy,310,2013-10-26 10:00:00
5:30 PM,80.6,73.4,79,29.86,5.6,WNW,4.6,-,N/A,,Mostly Cloudy,300,2013-10-26 10:30:00
6:00 PM,80.6,73.4,79,29.86,5.6,WNW,4.6,-,N/A,,Mostly Cloudy,300,2013-10-26 11:00:00
6:30 PM,80.6,73.4,79,29.86,5.0,Variable,3.5,-,N/A,,Mostly Cloudy,0,2013-10-26 11:30:00
7:00 PM,80.6,73.4,79,29.89,5.0,NW,3.5,-,N/A,,Mostly Cloudy,320,2013-10-26 12:00:00
7:30 PM,80.6,75.2,84,29.89,5.0,NW,2.3,-,N/A,,Mostly Cloudy,320,2013-10-26 12:30:00
8:00 PM,80.6,75.2,84,29.89,5.0,Variable,1.2,-,N/A,,Mostly Cloudy,0,2013-10-26 13:00:00
8:30 PM,78.8,75.2,89,29.89,5.0,Variable,3.5,-,N/A,,Mostly Cloudy,0,2013-10-26 13:30:00
9:00 PM,80.6,73.4,79,29.92,5.0,Variable,3.5,-,N/A,,Mostly Cloudy,0,2013-10-26 14:00:00
9:30 PM,80.6,75.2,84,29.92,5.0,NNW,3.5,-,N/A,,Mostly Cloudy,340,2013-10-26 14:30:00
10:00 PM,78.8,75.2,89,29.92,5.0,North,3.5,-,N/A,,Mostly Cloudy,10,2013-10-26 15:00:00
10:30 PM,78.8,73.4,83,29.92,5.0,North,3.5,-,N/A,,Mostly Cloudy,10,2013-10-26 15:30:00
11:00 PM,78.8,73.4,83,29.89,5.0,North,3.5,-,N/A,,Mostly Cloudy,360,2013-10-26 16:00:00
11:30 PM,78.8,73.4,83,29.89,5.0,North,4.6,-,N/A,,Mostly Cloudy,360,2013-10-26 16:30:00